Find Local Weather

World > North America > United States > California

Oakland, California Regional Weather

Lat: 37.77N, Lon: 122.22W
Wx Zone: CAZ508
Feedback

Oakland, CA Regional Weather

Expires:201903201500;;652913
ASUS46 KSTO 201404
RWRCA 

NORTHERN AND CENTRAL CA REGIONAL WEATHER ROUNDUP
NATIONAL WEATHER SERVICE SACRAMENTO CA 
700 AM PDT WED MAR 20 2019

NOTE: FAIR INDICATES FEW OR NO CLOUDS BELOW 12,000 FEET WITH NO
SIGNIFICANT WEATHER AND/OR OBSTRUCTIONS TO VISIBILITY.


CAZ006-505>513-201500-
BAY AREA
  
CITY           SKY/WX    TMP DP  RH WIND       PRES   REMARKS
SANTA ROSA     LGT RAIN  51  50  96 SE7       29.86S                  
SAN RAFAEL     N/A      MM  MM  MM MISG
NAPA           LGT RAIN  52  49  89 SE8       29.90S                  
CONCORD        RAIN      53  48  83 SE8       29.91S                  
OAKLAND CITY   N/A       53  MM  MM MISG
OAKLAND        CLOUDY    53  53 100 SE10      29.92R                  
SAN FRAN CITY  N/A       51  MM  97 MISG
SAN FRAN ARPT  LGT RAIN  53  48  83 SE10      29.91R                  
LIVERMORE      LGT RAIN  50  47  89 E8        29.91F                  
HAYWARD        CLOUDY    56  49  77 SE7       29.92S                  
REDWOOD CITY   N/A       51  MM  95 MISG
MOFFETT ARPT   CLOUDY    52  50  93 SE7       29.94R                  
SAN JOSE ARPT  CLOUDY    52  50  93 SE8       29.93S                  
$$

SKY/WX - Weather  TMP - Temperature  DP - Dew Point  RH - Relative Humidity
WIND - Wind Direction/Speed PRES - Barometric Pressure VSB - Visibility
WCI - Wind Chill Index E13G22 Wind - East Wind 13 mph/Gusts of 22 mph